Location: Lombard
(41.8800°N, 88.0080°W)
Time: 23:50:56
(UTC-05:00)

Tiros 1 - Pass Details

Date: 30 January 2023
Orbit: 628 x 662 km, 48.4° (Epoch: 20 March)

Event Time Altitude Azimuth Distance (km) Brightness Sun altitude
Rises 01:05:14 0° 217° (SW) 2,898 - -62.6°
Reaches altitude 10° 01:07:38 10° 210° (SSW) 1,997 - -62.4°
Maximum altitude 01:11:54 40° 141° (SE) 939 - -61.9°
Drops below altitude 10° 01:16:15 10° 73° (ENE) 2,022 - -61.5°
Sets 01:18:41 0° 66° (ENE) 2,939 - -61.2°
